Theta_e
332 329 333 335 336 338 338 339 339 338 339 340 339 339 339 339 338 338 338 338 337 337 338 338 338 338 338 338 339 339 339 339 338 338 338 338 338 338 338 338 338 339 339 339 339 339 339 339 340 340 340 339 338 338 337 337 336 336 336 336 336 333 332 332 331 331 330 331 334 333 334 340 342 340 339 340 342 341 340 339 339 339 338 338 337
330 328 332 334 336 336 337 338 338 338 338 339 339 339 339 338 338 338 338 338 338 338 338 338 339 338 338 339 339 340 339 339 339 339 338 338 338 338 338 339 338 339 339 339 339 339 339 339 340 340 340 339 337 337 336 336 335 335 335 335 335 331 330 331 331 330 330 332 336 337 336 339 340 338 336 336 338 340 341 340 340 339 339 339 338
329 328 329 332 334 334 336 336 337 337 338 339 338 339 338 338 338 338 338 338 339 339 339 338 339 338 339 339 339 339 339 339 339 339 338 338 338 339 338 338 339 339 339 339 340 339 339 340 340 340 339 338 338 336 335 335 334 334 333 332 332 329 329 330 329 330 331 334 337 338 338 339 338 336 337 336 335 335 334 336 338 340 340 340 340
328 328 327 329 331 333 333 335 336 336 337 336 336 337 337 338 338 338 338 339 339 339 339 338 338 339 339 339 339 339 339 338 338 338 337 337 337 338 338 338 338 338 339 339 339 339 339 340 340 339 337 338 337 336 335 334 334 333 332 331 331 331 329 328 328 328 330 335 338 338 338 338 339 338 338 338 337 334 330 328 329 335 338 340 341
327 327 326 327 328 330 330 332 333 334 335 335 335 335 335 336 336 337 337 338 338 338 338 338 338 339 339 338 338 338 338 337 336 336 336 336 337 337 337 337 337 338 338 338 338 339 339 339 339 337 336 336 335 335 335 334 333 332 332 332 331 331 329 328 327 326 327 334 338 338 339 339 339 340 339 338 338 337 337 332 325 328 331 334 337
327 326 325 325 325 326 328 328 330 332 333 333 334 333 334 335 335 335 336 336 336 337 337 337 337 337 337 337 336 336 336 335 334 334 334 334 334 334 335 335 336 337 337 337 337 337 337 337 337 336 335 333 333 333 333 333 332 331 331 331 330 329 328 328 327 327 326 331 336 337 338 339 339 339 340 339 339 339 340 338 333 332 330 328 329
326 325 324 323 322 323 325 325 327 329 330 329 330 332 333 333 333 333 333 334 334 335 335 335 335 335 335 335 334 334 334 333 333 332 332 331 331 332 332 333 333 334 335 335 335 335 335 334 333 332 331 330 330 329 329 330 329 329 329 329 329 328 328 328 328 328 326 328 334 335 336 338 339 339 339 339 340 340 339 339 338 337 333 330 328
325 325 322 321 321 319 319 320 324 326 326 325 326 331 331 330 331 331 330 331 332 332 332 333 333 333 332 333 332 332 332 331 331 330 329 328 328 329 329 330 331 331 332 332 331 331 331 330 328 327 326 325 325 325 326 326 327 327 327 327 328 328 328 328 328 328 327 326 329 333 336 336 337 337 338 339 340 340 340 340 339 337 334 332 331
325 324 321 319 318 317 317 318 320 322 323 322 325 329 329 329 329 329 330 329 329 329 330 330 330 330 329 329 329 329 329 328 328 326 326 325 325 325 325 326 327 327 327 328 327 326 326 324 322 320 317 316 316 317 317 319 321 322 323 324 325 326 327 327 327 327 327 325 325 330 335 336 335 334 334 338 339 339 339 339 338 336 333 332 332
325 323 322 319 316 317 318 319 320 320 322 323 326 329 328 328 328 328 328 327 327 327 327 327 327 327 326 327 327 327 326 325 323 322 321 320 320 319 319 320 321 322 323 322 322 321 319 316 313 310 307 305 305 306 306 307 308 310 312 315 318 321 323 325 326 327 327 326 325 325 330 334 335 333 332 336 339 338 339 339 336 334 332 332 331
324 324 322 319 317 318 320 323 322 322 323 323 325 327 327 327 327 326 323 323 325 326 325 325 325 325 324 324 323 322 321 319 317 316 314 313 312 311 310 309 310 311 313 314 314 312 310 306 303 301 300 299 299 299 299 300 300 300 301 303 305 308 312 315 320 324 326 326 326 325 326 330 332 333 331 334 338 339 339 338 336 333 331 330 331
324 324 321 318 317 319 322 326 325 324 323 321 322 321 322 322 321 320 316 316 320 321 321 321 322 321 319 316 315 313 312 310 309 308 306 305 304 303 302 301 301 301 302 303 304 304 302 299 298 297 297 297 298 298 297 297 297 297 297 298 298 299 301 304 308 313 318 323 326 326 325 326 329 331 331 333 337 338 337 337 335 333 330 329 331
323 322 320 318 317 320 323 326 324 322 319 317 317 314 312 311 310 310 310 311 313 314 313 314 315 312 310 307 306 304 304 303 302 301 300 300 299 300 299 298 298 297 298 298 298 299 298 297 297 297 297 297 297 297 297 297 297 297 297 297 298 298 299 300 300 302 306 313 319 323 325 326 328 330 332 334 337 337 337 337 335 333 332 331 330
321 320 318 317 318 320 321 321 318 315 313 313 312 308 306 305 305 306 306 308 308 308 307 307 306 304 302 301 300 300 299 299 299 298 298 298 298 298 297 298 298 298 297 297 297 297 296 297 297 297 297 297 296 297 296 296 296 297 298 299 300 301 301 303 303 302 303 307 314 320 324 326 329 332 333 334 336 336 337 337 334 333 333 333 332
319 317 315 316 317 318 318 315 311 309 309 309 308 306 305 305 305 305 305 306 306 305 303 301 300 299 299 299 298 298 298 298 298 297 297 297 297 297 296 299 301 301 299 298 297 296 296 296 296 296 297 297 297 297 296 296 297 298 299 300 302 303 304 305 307 308 309 313 316 319 324 327 329 331 333 333 334 335 335 336 335 334 334 333 333
317 315 314 315 316 317 316 312 309 308 308 306 305 304 304 304 304 304 303 303 302 301 300 299 298 298 298 298 298 298 297 297 297 297 297 297 296 296 296 297 299 300 299 298 297 296 296 296 296 296 296 296 296 296 296 296 297 298 299 300 301 302 302 305 307 309 311 314 315 316 319 324 327 328 330 331 332 332 333 334 334 335 335 334 333
316 315 314 313 314 315 313 310 308 307 305 303 302 302 302 303 302 302 301 300 299 298 298 298 298 298 297 297 297 297 297 297 297 297 297 297 297 296 296 296 296 297 297 296 296 296 296 295 295 295 295 295 295 295 295 296 296 296 297 297 297 297 298 300 302 305 307 309 312 313 314 317 320 322 325 327 328 328 329 331 331 332 332 332 332
315 315 313 313 313 313 311 308 306 304 302 301 301 301 301 301 301 300 300 299 298 297 297 297 297 297 297 297 297 297 297 297 297 297 297 297 297 296 296 296 296 296 296 296 296 296 296 296 296 296 296 296 296 296 296 296 296 296 295 295 295 295 296 296 297 299 301 304 307 309 311 313 314 317 320 322 324 324 325 326 326 326 327 327 327
314 313 312 312 312 311 310 306 304 302 301 300 301 300 300 300 299 299 299 298 297 297 297 297 297 297 297 297 297 297 297 297 297 296 296 296 296 296 296 296 296 296 296 296 296 296 296 296 296 296 296 296 296 296 296 296 296 296 296 296 296 295 296 296 296 296 297 299 301 303 306 308 309 312 315 317 318 319 320 321 322 321 321 321 320
312 311 311 311 311 310 309 305 303 302 300 300 300 300 300 299 299 298 298 297 297 297 297 297 297 297 297 297 297 297 297 297 297 297 296 296 296 296 296 296 296 296 296 296 296 296 295 295 295 295 295 295 295 295 295 295 295 296 296 296 296 296 296 296 296 296 296 296 297 298 300 302 305 309 312 314 314 314 314 314 314 314 314 313 313
310 309 309 310 310 309 307 304 302 301 300 299 299 300 299 299 298 298 297 297 297 297 297 297 297 297 297 298 297 297 297 297 297 297 297 297 296 296 296 296 296 295 295 295 295 294 294 294 294 294 295 295 295 295 295 295 295 295 295 295 296 296 296 296 296 296 296 296 296 296 297 298 301 306 310 312 313 313 313 311 311 310 310 309 310
307 307 307 307 308 307 305 303 301 300 299 299 299 299 299 299 298 298 297 297 297 297 297 297 297 297 297 297 297 297 297 297 297 297 297 297 296 296 295 295 295 294 294 294 294 293 293 293 293 293 294 294 294 294 294 294 294 295 295 295 295 295 295 295 295 295 295 296 296 296 296 297 299 303 309 312 313 314 313 312 313 312 312 312 312
306 306 306 305 305 305 303 301 300 298 298 298 298 299 299 298 298 298 297 297 297 296 297 297 297 297 297 297 297 297 297 297 297 297 296 296 296 295 295 294 294 294 294 293 293 293 293 293 293 293 294 294 294 294 294 294 294 294 294 294 294 294 294 294 294 294 295 295 295 295 295 296 298 301 305 310 311 312 312 313 314 314 314 315 315
306 306 306 304 302 302 301 300 298 298 297 298 298 299 298 298 298 297 297 297 296 296 297 297 297 297 297 297 297 297 296 296 296 296 296 296 295 294 294 294 294 293 293 293 293 293 293 293 294 294 294 294 294 294 293 293 293 293 293 293 293 293 293 293 293 293 294 294 294 294 295 295 296 298 302 306 308 309 310 312 313 314 315 316 316
305 305 305 304 303 301 300 299 298 297 297 297 298 298 298 297 297 297 297 296 296 296 297 297 297 297 297 297 297 297 296 296 296 296 296 295 295 294 294 293 294 293 293 294 294 294 294 294 294 294 294 294 294 294 294 294 294 293 293 293 293 293 293 293 293 293 293 293 293 293 294 294 295 297 300 304 306 307 309 311 311 313 315 316 316
304 304 304 304 303 301 300 299 297 297 297 298 299 298 297 297 297 297 296 296 296 296 296 296 296 296 296 296 297 296 296 296 296 296 295 294 294 294 294 293 294 294 294 294 295 295 295 295 295 295 294 294 294 294 294 294 294 294 293 293 293 293 293 293 293 293 293 293 293 293 293 293 294 295 298 303 306 308 309 310 311 312 314 315 316
304 304 304 304 303 301 300 300 298 297 297 298 298 298 297 297 297 296 296 296 295 295 296 296 296 296 296 296 296 296 296 295 295 295 295 294 294 294 294 293 294 295 295 295 295 296 296 295 295 295 294 294 294 294 293 293 294 293 293 293 293 293 293 293 293 293 293 293 292 292 293 293 293 294 296 300 305 308 309 310 311 313 314 314 315
304 303 303 303 302 302 301 300 299 298 297 298 298 298 297 297 296 296 296 296 295 295 296 295 295 296 296 296 296 296 296 295 295 295 295 294 294 294 294 294 294 295 295 295 295 295 295 295 295 294 294 294 293 293 293 293 293 293 293 293 293 293 293 293 293 293 293 293 292 292 293 293 293 294 295 298 302 306 308 309 311 312 312 313 313
303 303 303 302 302 302 301 300 300 299 298 299 299 298 297 296 296 296 295 295 295 295 295 295 295 295 295 295 296 296 296 295 295 295 295 295 294 294 294 294 294 295 294 294 295 295 294 294 294 293 293 293 293 293 293 293 293 293 293 293 293 293 293 293 293 293 292 292 292 292 293 293 293 294 294 295 299 304 306 307 309 309 310 311 312
304 304 303 303 302 302 302 301 300 300 299 299 299 298 296 296 295 296 295 295 295 295 295 295 295 295 295 295 296 296 296 296 295 295 295 295 295 294 294 294 294 294 294 294 294 294 294 294 293 293 293 292 293 293 292 292 292 292 292 292 292 293 292 292 292 292 292 292 292 292 292 293 293 293 294 295 297 300 304 305 306 307 308 310 311
304 304 304 303 302 302 302 301 301 300 299 299 299 298 296 295 295 295 295 295 295 295 295 295 295 295 295 296 296 296 296 295 295 295 295 295 295 294 294 294 294 294 294 294 294 294 294 293 293 292 292 292 292 292 292 292 292 292 292 292 292 292 292 292 292 292 291 291 291 292 292 293 293 294 295 295 295 296 300 304 305 306 307 308 309
304 304 305 304 302 302 302 302 301 300 300 299 299 298 296 296 296 296 296 296 295 295 295 295 295 295 295 296 296 296 295 295 295 295 295 295 295 294 294 294 294 294 294 294 294 293 293 293 293 292 292 292 292 291 291 291 291 292 292 292 292 292 292 292 292 291 291 291 291 292 292 293 294 295 295 295 294 294 297 300 302 303 306 307 307
305 305 304 303 303 303 302 302 301 301 300 300 299 298 296 296 297 297 297 297 296 295 295 295 295 294 295 296 296 296 295 295 294 295 295 295 294 294 294 294 294 294 293 293 293 293 293 292 292 292 292 291 291 291 291 291 291 291 291 292 292 292 292 292 291 291 291 291 291 292 293 294 295 295 295 295 294 294 295 297 299 302 304 305 305
306 304 303 304 304 303 302 302 301 301 301 300 300 298 296 297 298 298 298 298 297 296 295 296 295 295 295 295 295 295 295 294 294 294 294 294 294 294 294 294 293 293 293 293 293 293 292 292 292 291 291 291 291 291 291 291 291 291 291 291 291 292 291 291 291 290 290 291 292 293 294 295 295 295 295 295 295 295 295 295 297 301 303 304 303
306 305 304 304 304 303 302 302 301 301 301 300 300 298 297 297 298 299 298 298 297 296 296 296 296 295 294 295 295 295 294 294 294 294 294 294 294 293 293 293 293 293 293 292 292 292 292 292 292 291 291 291 291 291 291 291 291 291 291 291 291 291 291 291 290 290 290 291 292 294 295 295 296 296 295 296 295 295 295 294 294 297 300 302 301
307 306 305 304 303 303 303 302 302 301 301 300 300 298 297 298 298 298 298 298 297 297 297 297 297 295 294 294 294 294 294 293 293 293 294 294 293 293 293 293 293 292 292 292 292 292 292 292 292 291 291 291 291 290 290 290 291 291 291 291 291 291 291 290 289 290 291 292 293 294 295 295 295 295 295 295 296 296 295 295 293 293 296 297 297
308 307 305 304 303 303 302 302 302 302 301 301 300 299 298 298 299 298 298 298 298 298 298 298 297 296 295 294 294 294 293 293 293 293 293 293 293 293 292 292 292 292 292 292 292 292 291 291 292 291 291 291 291 290 290 290 290 291 290 290 290 290 290 289 289 290 291 293 294 294 295 295 295 295 295 295 295 296 295 294 292 291 293 293 293
308 307 306 305 304 303 303 302 302 302 301 300 300 299 299 298 298 298 299 299 298 298 298 298 297 296 296 295 294 293 293 293 293 292 292 292 292 292 292 292 292 292 292 292 291 291 291 291 291 291 291 290 290 290 290 290 290 290 290 290 290 290 290 289 289 291 292 293 294 295 295 294 294 294 294 293 293 293 293 292 291 291 291 292 292
307 307 306 305 304 303 302 302 301 301 301 300 300 299 299 299 298 298 299 299 298 298 298 297 297 296 296 295 294 293 293 293 292 292 292 292 292 291 292 292 291 291 291 292 291 291 291 291 291 290 290 290 290 290 289 289 289 289 289 290 290 290 289 289 290 292 293 293 293 293 293 292 291 291 291 291 291 291 291 290 290 289 290 290 290
307 307 305 304 303 302 301 301 301 300 300 300 299 299 298 298 298 298 298 298 298 297 297 297 296 296 296 295 294 293 292 292 292 292 292 292 291 291 291 291 291 291 291 291 291 291 291 290 290 290 290 290 289 289 289 288 288 288 289 289 290 290 289 289 291 292 291 290 290 290 290 289 289 290 290 290 290 290 289 289 289 288 289 289 289
307 306 305 304 303 302 301 300 300 300 300 299 299 298 298 298 298 298 297 297 297 297 297 296 296 296 295 295 294 292 292 292 292 292 292 291 291 291 291 291 291 291 291 291 291 290 290 290 289 289 289 289 289 289 288 288 287 287 288 289 289 289 290 290 291 290 289 289 289 288 288 288 289 289 289 289 289 288 288 288 288 288 288 288 288
306 305 304 303 302 301 301 301 300 300 300 300 299 298 298 298 298 297 297 297 297 297 297 296 296 295 295 295 294 292 292 292 292 292 291 291 291 290 290 290 291 290 290 289 290 290 289 289 289 289 288 288 288 288 288 287 287 286 286 287 289 290 290 289 290 290 289 289 288 287 288 288 288 288 288 288 288 287 287 287 287 287 287 287 287
306 305 304 303 301 301 301 300 300 300 300 300 300 299 298 298 298 297 297 297 297 297 296 296 295 295 295 295 294 292 292 292 292 291 291 291 291 290 290 290 290 290 290 289 289 289 289 289 289 289 288 288 288 288 287 286 286 286 286 289 290 291 292 290 289 289 289 289 288 287 288 287 287 287 287 287 287 287 287 286 286 286 286 287 286
305 304 303 302 301 300 300 300 300 300 300 300 299 299 298 297 297 297 297 297 296 296 296 295 295 295 295 295 294 293 292 291 291 291 291 291 290 290 290 290 290 289 290 290 289 289 289 289 288 288 289 288 287 287 287 286 286 286 288 290 289 289 293 290 286 288 288 288 288 287 287 286 286 286 286 286 286 286 286 286 286 286 286 286 286
304 303 302 302 301 300 300 300 300 299 299 299 299 298 297 296 296 296 296 296 295 295 294 294 294 295 295 294 294 293 292 292 291 291 291 290 290 289 289 289 289 289 289 289 289 289 289 288 288 288 289 289 288 287 286 285 285 286 287 289 289 290 292 288 285 288 288 287 287 286 286 286 286 286 286 286 285 285 285 285 285 286 286 286 286
303 303 303 302 301 300 300 300 299 299 299 298 298 297 297 296 296 295 295 294 294 294 294 294 294 294 294 294 294 293 293 292 292 291 290 290 289 289 289 289 289 289 289 289 288 288 288 288 288 288 289 289 289 287 286 285 285 286 285 286 287 288 287 285 287 289 287 286 286 286 286 286 285 285 285 285 285 285 285 285 285 285 285 285 285
303 303 302 301 301 300 300 299 299 299 298 298 297 297 297 296 296 296 295 294 294 293 294 294 294 294 294 294 293 293 293 292 292 291 290 289 289 288 288 288 288 289 288 288 288 288 288 288 288 288 289 289 289 288 286 285 285 285 285 285 285 285 284 285 287 287 286 285 285 285 286 285 285 285 285 284 284 284 284 285 285 285 285 285 285
303 302 301 301 301 300 300 299 299 298 298 298 297 297 297 296 296 296 295 295 294 294 294 293 294 293 293 293 293 293 293 292 292 291 290 289 289 288 288 288 288 288 288 288 288 288 287 287 287 288 288 289 289 288 287 285 285 285 284 284 284 284 283 284 284 284 285 285 284 284 285 285 285 285 284 284 283 284 284 284 284 284 285 285 285
302 302 302 301 300 300 299 299 298 298 298 297 297 297 297 296 296 295 295 295 294 294 294 293 293 293 293 293 293 293 293 292 292 291 290 289 288 288 288 288 287 287 288 288 287 287 287 287 288 288 288 288 288 288 287 286 285 284 284 283 283 283 283 283 283 283 284 284 284 284 284 284 283 284 283 283 283 283 283 283 284 284 284 285 285
302 302 301 301 300 299 299 299 298 298 297 297 297 297 296 296 295 295 295 294 294 294 293 293 293 293 293 293 292 292 292 292 292 291 290 289 288 288 287 287 287 287 287 287 287 287 287 287 287 287 288 288 288 288 287 286 285 284 283 283 283 283 283 283 283 283 283 283 283 283 283 283 282 283 284 283 282 283 283 284 284 284 284 284 284
301 301 300 300 300 299 299 298 298 298 297 297 297 296 296 296 296 295 295 294 294 293 293 292 292 292 292 292 292 292 292 292 292 291 290 289 288 288 287 287 287 287 287 287 287 287 287 287 287 287 287 287 287 287 286 285 285 283 283 282 282 282 283 283 283 283 282 282 282 282 282 282 281 282 284 283 282 283 283 283 284 284 284 284 284
Wind_Speed
18 17 15 14 12 10 9 10 10 10 11 11 10 9 9 9 8 8 8 8 8 8 7 7 8 8 7 7 7 7 7 7 7 7 8 7 7 7 7 6 6 6 5 5 4 4 5 5 4 4 5 4 5 6 7 8 8 8 8 8 8 9 10 11 12 12 11 10 11 10 8 7 9 11 12 10 8 7 7 6 7 6 6 6 6
21 18 17 17 14 12 10 10 11 10 11 11 11 10 10 10 9 9 9 9 9 9 8 8 8 8 8 8 8 8 8 8 9 9 9 9 9 8 7 6 6 6 5 5 4 5 6 5 5 5 5 4 4 5 6 6 7 7 7 8 9 10 10 11 11 11 11 10 11 11 9 8 10 11 12 11 9 8 7 6 6 6 7 6 6
21 19 17 18 16 14 13 11 11 11 11 11 12 11 11 11 11 11 11 10 10 9 9 9 9 10 10 10 10 10 10 10 10 9 10 9 9 9 9 8 7 7 6 6 5 6 7 7 6 5 5 5 4 4 4 4 5 6 6 7 8 10 10 10 10 11 10 9 10 11 10 10 10 10 12 12 10 8 7 6 6 6 6 6 6
21 19 17 17 16 15 16 16 14 12 12 12 12 11 11 10 11 11 11 11 11 10 10 10 10 11 11 11 11 11 11 10 9 9 9 9 9 9 10 9 8 8 7 7 7 7 7 8 6 5 5 4 4 3 3 2 3 5 5 6 7 8 8 9 9 9 9 8 9 10 10 10 9 8 10 10 10 9 8 8 6 6 6 6 6
20 19 17 16 16 15 15 16 15 13 12 12 11 10 10 9 10 9 10 10 10 10 10 10 10 10 10 10 9 10 10 9 8 8 9 9 9 9 9 9 8 9 8 7 8 8 8 7 5 4 5 4 3 2 1 1 2 4 4 5 5 5 6 6 7 7 7 6 6 7 9 10 9 8 8 8 8 9 9 10 8 7 7 6 6
19 19 18 16 16 16 15 15 15 15 13 12 12 11 11 9 10 9 9 9 9 9 9 9 9 9 8 8 8 8 8 7 7 7 7 8 8 8 8 8 7 7 6 5 6 7 6 5 3 3 4 3 2 1 1 2 3 4 4 4 5 5 5 5 5 5 5 4 3 4 6 7 7 8 8 7 7 8 9 10 9 9 9 7 7
18 19 17 17 17 17 16 16 16 16 14 13 14 12 11 10 11 10 9 9 9 9 9 8 8 8 7 7 7 7 7 6 6 6 7 7 8 8 8 8 7 7 6 5 5 5 4 2 1 2 2 2 2 2 2 2 3 4 5 5 5 6 6 5 5 4 4 3 2 2 3 3 3 4 5 6 7 7 8 9 9 11 10 8 8
19 19 17 18 18 18 17 17 17 17 15 14 15 13 12 12 12 11 11 11 10 10 9 9 8 8 8 7 7 7 6 6 6 7 7 6 6 6 7 7 7 7 6 5 4 4 3 2 3 3 3 3 3 3 3 3 4 5 5 6 6 6 6 6 5 4 4 2 2 2 2 2 1 1 2 5 5 5 6 7 8 10 9 9 8
20 20 18 18 18 19 17 18 18 17 16 16 17 14 13 13 13 13 13 13 12 11 10 10 9 9 9 8 7 7 7 7 7 7 6 6 6 6 6 6 6 7 6 5 5 4 3 3 4 4 3 3 3 3 3 3 4 5 6 6 6 6 6 6 6 6 5 3 2 3 3 3 3 3 3 4 5 6 6 7 7 8 8 9 8
22 20 19 18 18 19 18 18 18 17 16 16 16 14 14 14 14 14 15 15 14 13 12 11 11 11 10 10 9 9 8 8 7 6 5 5 6 6 6 6 6 6 6 5 4 3 3 3 3 3 4 3 3 3 3 3 3 4 5 6 7 7 7 7 7 6 6 5 4 3 4 4 4 4 3 3 6 8 9 7 7 8 9 9 8
22 21 19 19 19 19 18 17 17 18 16 16 16 15 15 14 14 15 15 15 15 15 14 13 12 12 11 10 10 9 9 7 7 6 5 5 5 5 5 6 6 6 6 5 4 3 3 3 3 3 4 4 4 4 4 4 4 4 5 6 7 7 8 8 8 7 7 6 5 5 5 5 4 4 4 4 6 8 9 9 9 10 10 9 7
23 22 21 20 20 19 17 16 16 18 17 16 16 15 14 14 14 14 14 13 14 14 13 13 12 11 10 9 9 8 8 7 6 6 6 6 6 6 6 6 7 6 6 6 5 5 5 5 5 5 4 4 4 5 5 5 5 5 5 5 5 6 6 7 7 7 7 6 5 5 5 5 4 4 4 4 6 6 8 9 10 11 10 9 7
25 23 22 21 21 20 18 16 16 17 16 16 15 15 14 14 14 14 13 12 13 12 12 11 11 10 9 9 8 8 7 7 6 6 6 6 7 7 7 8 8 8 8 8 8 7 7 7 7 7 7 7 6 6 6 6 6 6 6 6 5 5 5 5 5 5 5 5 5 4 4 4 3 3 4 4 5 6 9 10 10 11 10 9 7
26 24 23 23 23 21 19 18 17 17 17 17 16 16 16 15 14 14 13 13 13 12 11 10 10 10 9 9 8 8 7 7 7 7 8 8 9 9 9 10 10 11 10 10 10 10 9 9 9 9 9 9 8 8 7 7 7 7 6 6 6 6 5 5 4 2 1 1 2 2 2 2 2 1 3 4 5 6 8 9 10 10 10 9 9
26 25 23 24 23 22 21 19 19 19 19 19 18 17 16 16 15 14 14 13 13 12 12 11 11 10 9 9 9 9 9 9 9 9 9 10 10 11 11 12 12 12 12 12 11 11 10 10 10 9 9 9 9 8 8 8 7 7 6 6 6 6 6 5 5 4 3 3 2 1 0 1 1 1 2 4 5 6 7 7 8 8 8 9 9
26 24 24 24 23 23 22 21 21 21 21 20 19 17 16 15 14 14 14 14 13 12 12 11 11 11 11 11 11 11 11 10 10 10 10 11 11 11 12 12 12 13 12 12 12 12 11 11 10 10 9 9 9 9 8 8 7 7 7 7 7 6 6 5 4 4 4 3 3 2 1 1 1 1 2 4 6 7 7 7 8 7 7 7 8
25 24 24 23 23 23 23 23 23 22 21 20 18 17 16 15 14 14 14 14 13 13 13 12 13 13 13 13 13 13 12 12 11 11 11 11 11 11 11 11 11 11 12 12 12 11 11 11 11 10 10 9 9 9 9 8 8 8 8 8 7 7 7 6 5 4 3 3 2 3 2 2 2 3 4 5 6 7 7 7 8 9 9 8 9
25 24 24 24 24 24 25 25 24 23 22 20 18 17 16 15 14 14 13 13 13 14 14 15 15 15 15 14 14 13 13 12 12 12 11 11 11 11 11 11 10 10 10 10 10 10 10 10 10 9 9 9 8 8 8 8 8 8 8 8 8 8 7 6 5 5 4 2 2 2 2 2 3 4 5 6 7 7 8 9 10 11 11 12 12
25 24 24 26 26 26 26 26 25 24 22 20 18 17 16 15 14 14 14 14 14 15 16 16 16 15 15 14 13 13 13 12 12 12 12 11 11 12 11 11 10 10 10 9 9 8 8 8 8 8 8 8 7 7 7 7 7 7 7 7 7 7 7 7 7 6 5 4 3 2 2 2 3 5 6 7 8 9 10 11 13 14 15 15 15
25 25 25 27 27 28 28 27 25 24 22 20 19 18 17 16 16 15 15 15 16 17 17 17 16 15 14 14 13 13 13 12 12 12 12 12 12 12 11 11 10 10 10 9 9 8 8 8 8 8 7 7 7 7 7 7 7 7 6 6 6 6 6 7 7 6 6 5 5 4 3 3 3 5 8 9 10 10 11 13 14 15 16 16 15
27 27 27 28 29 29 29 28 26 25 23 21 20 19 18 18 18 17 17 17 18 18 18 17 16 15 15 15 14 14 14 14 14 13 13 13 12 12 11 11 10 10 10 10 10 10 10 9 9 9 9 8 8 7 7 7 7 7 7 6 6 6 6 6 6 6 5 5 5 5 4 4 5 7 10 11 11 11 11 11 12 13 14 14 14
30 29 29 30 31 32 31 29 28 27 25 23 22 21 21 20 20 19 19 19 20 20 19 18 17 17 16 16 16 16 16 16 15 15 14 13 13 12 12 11 11 11 11 11 11 11 10 10 10 10 10 10 9 9 8 8 8 7 7 7 6 6 6 6 6 6 5 4 4 4 4 4 6 7 10 12 13 13 13 12 12 13 13 14 14
33 34 33 33 34 34 33 32 30 29 27 25 24 23 23 22 22 22 22 22 22 21 21 20 19 19 19 19 19 18 18 17 16 15 15 14 13 12 12 11 11 11 11 11 11 10 10 10 10 10 10 10 9 9 9 9 9 8 8 7 7 7 7 7 7 6 6 5 4 4 3 3 4 6 8 12 13 13 13 13 13 13 14 14 14
38 39 37 36 35 35 35 33 32 31 29 28 27 26 25 24 24 24 24 24 23 23 22 22 21 21 21 21 20 19 18 17 17 16 15 14 13 12 12 11 11 11 10 10 10 10 9 9 9 9 9 9 9 9 9 9 9 9 9 8 8 8 8 8 8 8 7 6 5 4 4 3 3 4 6 9 11 12 13 13 13 13 14 14 14
38 36 37 38 37 37 37 35 34 33 32 30 29 28 27 27 27 27 27 26 25 25 24 24 23 23 23 22 21 19 18 18 16 15 14 13 13 12 12 11 10 10 9 8 8 8 8 8 8 8 8 9 8 8 8 8 8 9 9 9 9 9 9 9 8 8 8 7 7 6 5 4 3 4 5 8 11 12 13 14 14 14 14 14 14
32 35 39 41 40 39 38 37 36 35 34 32 31 30 30 30 30 30 29 29 28 27 26 26 25 25 25 23 21 19 18 17 16 15 14 13 13 13 12 11 9 8 8 6 6 7 7 8 8 8 8 8 8 8 8 8 8 8 9 9 9 9 9 9 8 8 8 7 7 6 5 5 4 4 5 8 11 12 13 14 14 14 15 14 14
35 39 41 41 41 40 39 38 37 36 35 33 32 32 31 31 31 31 31 31 30 29 29 27 26 26 24 23 20 19 19 18 16 16 15 14 13 13 12 10 8 6 6 5 5 6 7 7 8 7 7 7 7 7 7 8 8 8 8 9 9 9 9 9 8 8 8 7 7 6 5 5 4 4 4 6 9 11 12 13 13 13 14 14 14
36 38 39 40 42 42 41 40 39 38 37 35 34 33 32 32 32 32 32 32 31 31 30 28 27 25 23 22 21 20 19 18 18 17 16 15 13 12 11 9 7 5 5 4 4 5 6 7 7 6 6 6 6 6 7 8 8 8 9 9 9 9 9 9 9 9 8 8 7 6 6 5 5 4 4 5 8 11 12 12 12 13 13 13 13
36 38 38 40 42 43 42 42 41 40 38 37 36 35 34 34 34 34 33 33 33 32 30 28 27 25 24 23 22 21 20 20 19 18 17 16 14 12 10 9 7 6 5 4 4 5 6 6 6 6 6 5 5 6 7 7 8 9 9 9 10 10 10 10 10 9 8 8 7 6 5 5 5 5 5 4 7 10 12 12 13 13 13 13 13
40 39 38 42 43 43 44 44 43 42 40 39 38 37 36 36 36 35 34 34 33 32 30 28 28 27 26 25 24 22 21 21 20 19 18 16 15 13 11 9 7 6 5 4 4 5 5 6 6 6 5 5 6 6 7 8 8 9 9 10 10 10 11 11 10 9 9 8 7 7 5 5 5 5 5 6 8 10 12 13 14 15 14 14 14
38 37 41 43 42 43 46 45 44 43 42 41 40 39 38 38 37 36 35 35 34 32 30 29 29 29 27 26 25 23 22 21 21 20 19 17 15 14 12 10 8 7 5 3 4 4 5 5 5 5 5 6 6 7 7 8 9 9 10 10 11 11 12 11 10 9 9 9 8 7 6 5 5 5 7 9 10 11 11 13 14 15 15 15 15
38 41 43 41 41 45 46 46 45 44 43 43 41 40 40 39 38 37 36 35 34 33 32 31 30 30 28 27 26 24 23 22 22 21 20 18 16 15 13 11 9 7 5 3 3 3 4 4 5 5 5 5 6 7 8 8 9 10 11 11 11 12 12 11 9 9 9 9 8 7 6 5 5 7 9 10 12 12 12 13 14 15 15 15 16
42 43 40 40 42 45 46 46 45 45 45 44 42 41 41 40 39 38 37 35 34 34 34 33 32 31 29 28 26 25 24 23 22 21 20 19 17 16 14 12 10 7 6 4 3 3 3 4 4 4 4 4 5 6 7 8 9 10 11 11 12 13 12 10 9 9 9 8 7 6 6 6 8 9 9 10 11 12 12 13 14 15 15 15 16
41 37 37 41 43 44 45 45 45 46 45 44 43 42 42 41 40 38 37 36 35 35 35 34 33 32 30 29 28 26 25 24 23 22 21 20 18 17 15 13 11 8 7 5 4 3 3 3 3 3 3 4 6 7 8 8 9 11 12 12 13 13 11 9 8 9 8 7 6 6 6 7 8 8 9 10 10 11 12 13 13 15 16 15 16
38 37 41 43 43 43 44 45 46 47 46 45 45 44 43 42 41 39 38 37 36 36 36 35 34 33 32 31 29 27 26 25 24 23 22 21 19 18 16 14 11 9 7 6 5 3 2 2 2 2 3 4 6 8 9 10 11 12 13 13 14 13 10 8 8 7 6 5 5 6 6 7 7 8 8 8 8 10 11 12 13 14 14 14 16
40 42 43 41 42 43 44 45 46 47 46 46 45 44 44 43 42 40 39 38 38 37 36 35 34 33 33 32 30 28 27 26 25 24 23 22 20 18 17 14 12 10 8 7 5 3 2 1 1 2 4 5 6 8 9 11 13 14 14 15 15 13 9 8 7 6 4 5 6 5 5 5 6 7 7 7 7 9 10 12 14 14 12 14 16
43 43 42 41 42 43 44 45 46 48 47 46 45 44 44 43 42 40 39 39 39 38 37 36 34 34 33 32 31 29 28 27 26 25 23 22 20 19 17 15 13 11 9 8 6 4 2 1 1 2 4 5 7 8 10 12 14 15 16 16 15 11 8 7 5 4 5 6 5 4 4 4 5 6 6 7 7 9 10 12 14 14 13 14 16
41 42 42 43 44 44 45 45 46 46 46 45 44 44 43 42 41 40 40 39 39 38 37 36 35 35 34 32 31 30 29 28 27 26 24 22 21 19 18 16 14 12 11 9 7 5 4 2 1 2 3 5 7 9 11 13 15 17 16 16 13 8 7 5 3 5 6 6 4 2 3 4 6 6 7 8 9 9 11 12 13 14 14 15 16
39 40 42 42 42 43 44 44 44 44 44 44 43 42 41 40 40 39 39 39 39 38 37 37 36 35 34 33 32 31 31 29 28 27 25 24 22 20 19 17 16 14 12 11 9 7 5 4 2 0 2 4 6 9 11 14 16 16 16 16 10 7 4 2 4 7 8 4 2 3 4 6 7 7 7 7 8 8 10 11 12 13 13 13 14
38 39 40 40 41 42 42 42 43 43 43 42 41 40 39 38 38 38 39 39 40 39 38 37 36 36 34 33 33 33 32 31 30 29 27 25 24 22 20 19 17 16 14 12 10 9 6 5 3 1 1 3 4 7 11 14 16 15 16 14 8 6 2 5 10 11 6 8 7 4 5 6 6 5 5 6 7 8 10 11 12 12 12 12 13
35 37 39 41 43 43 43 43 43 43 44 43 43 42 41 39 39 40 41 41 40 40 38 38 37 37 35 34 34 34 33 32 31 30 28 27 25 23 22 20 19 17 14 12 11 10 8 6 5 3 2 2 3 6 10 13 13 14 16 11 8 5 2 7 15 10 12 8 5 7 7 6 5 4 5 6 7 9 9 11 12 13 11 12 13
36 39 41 43 43 43 45 45 44 45 46 46 46 45 45 44 42 43 42 41 41 41 40 40 39 38 37 36 35 35 34 33 33 31 29 28 26 25 24 22 20 18 15 14 12 11 9 8 6 5 4 3 4 5 9 10 9 11 10 7 9 6 2 6 17 2 16 2 7 13 8 7 9 7 6 6 8 10 11 12 14 13 12 12 15
38 40 41 41 42 42 44 44 45 47 47 47 47 46 45 44 42 40 40 39 39 41 40 40 39 39 38 36 35 35 35 34 33 32 31 29 28 27 25 23 21 19 18 16 15 13 11 9 7 6 5 5 5 4 7 9 9 10 5 2 5 3 3 1 9 13 15 6 3 14 5 8 12 8 8 8 10 12 13 15 16 14 13 14 16
33 36 37 39 41 43 44 44 46 47 48 47 47 45 42 40 37 36 37 37 36 37 36 37 39 39 38 37 36 37 36 35 34 33 32 30 29 27 26 24 22 20 19 17 16 14 12 10 9 8 6 6 5 4 4 7 8 8 3 1 1 1 2 3 9 21 8 8 8 10 5 14 13 10 11 11 13 14 15 17 17 15 14 16 18
32 36 40 41 43 44 45 45 45 46 47 47 45 43 39 37 33 29 30 31 30 32 34 35 38 39 39 40 39 38 37 36 35 34 33 31 29 28 26 24 23 21 19 17 16 14 13 12 10 8 6 5 5 6 4 4 5 5 4 1 1 0 2 2 10 13 5 8 14 6 9 18 14 13 15 14 15 15 17 19 16 15 16 18 20
34 39 42 43 43 43 44 44 44 45 44 44 43 42 41 39 37 33 33 32 29 33 39 40 40 42 42 41 40 38 37 36 35 35 33 32 30 28 26 25 24 23 21 18 16 15 14 13 11 9 6 4 4 5 5 3 4 3 4 3 2 3 3 4 5 3 6 12 9 7 19 18 11 15 17 16 17 18 20 19 17 18 19 21 20
35 37 38 40 40 41 43 44 44 44 43 43 44 43 42 42 43 42 40 38 35 37 40 39 40 41 40 39 39 38 37 36 36 35 34 32 30 28 27 26 24 23 21 19 18 16 15 14 12 10 7 4 3 4 5 3 4 5 3 3 4 5 5 6 3 2 7 7 7 16 21 10 12 23 20 16 17 20 21 18 18 20 21 22 21
32 33 35 38 39 40 42 43 43 43 43 44 45 46 46 45 45 42 40 40 39 37 36 36 37 39 38 39 40 39 39 38 37 35 34 32 30 29 28 27 25 23 22 20 18 17 16 15 13 11 8 5 3 2 3 2 3 4 3 3 5 6 6 7 6 4 4 4 10 16 10 9 22 24 17 18 20 19 20 20 20 21 22 22 19
30 33 36 38 38 39 40 41 41 42 43 45 47 48 47 45 44 41 39 39 38 34 34 35 36 37 38 39 40 40 40 39 38 36 35 33 32 31 30 28 26 24 23 20 18 18 17 16 14 12 9 7 4 2 2 2 2 3 4 3 4 5 6 8 10 8 5 4 7 9 12 21 26 21 18 20 20 21 24 23 21 21 21 19 17
29 32 34 35 36 37 38 40 41 41 42 44 46 47 46 44 43 43 41 38 35 32 32 33 35 37 38 39 40 40 41 40 39 37 36 34 33 32 31 29 28 25 23 22 21 20 18 16 14 12 10 8 6 4 2 2 2 3 4 5 6 6 5 6 6 7 6 6 6 7 15 19 19 27 33 25 21 27 26 22 22 22 19 16 17
26 28 30 33 35 36 38 40 40 40 41 43 45 46 45 44 44 45 43 40 37 34 33 34 36 37 38 39 39 40 40 41 40 38 37 35 34 33 31 30 28 26 24 23 22 21 19 17 15 13 11 9 7 6 4 3 3 4 6 7 9 8 7 7 7 8 7 7 6 6 12 15 15 26 35 34 31 30 26 24 23 19 16 17 19
Wind_Direction
177 180 170 150 153 150 138 136 130 133 129 123 127 130 133 136 139 139 138 136 135 130 122 116 114 111 108 106 107 105 102 100 98 99 98 94 92 91 92 91 83 77 73 68 70 78 82 83 76 78 79 65 54 54 48 46 45 43 44 43 44 41 41 41 42 46 48 54 57 57 61 67 59 50 44 40 41 36 29 24 22 28 32 30 28
168 170 167 153 155 154 146 138 133 134 127 122 122 126 128 130 134 134 132 130 128 126 121 120 119 116 115 113 114 114 110 107 102 100 100 101 99 96 94 93 90 82 78 74 73 82 85 91 90 82 75 63 52 51 45 37 32 30 34 36 35 31 33 35 36 42 48 60 57 52 61 64 52 41 35 33 36 36 30 23 18 17 20 22 20
165 167 169 159 156 155 154 146 144 144 134 126 122 125 126 129 130 129 126 122 122 119 120 122 120 117 118 118 117 117 114 111 108 106 103 107 107 102 99 93 93 88 85 88 87 89 90 92 91 88 82 71 58 49 41 26 18 14 13 19 21 21 21 24 27 35 49 65 58 55 69 60 42 34 30 27 29 28 24 17 13 13 14 16 15
170 170 172 168 164 160 160 153 153 159 151 139 131 128 129 133 130 131 128 124 124 121 123 123 121 119 118 118 116 116 116 117 115 112 104 103 104 100 100 96 92 88 85 90 90 92 94 90 87 99 106 94 77 58 37 14 12 9 4 7 10 12 11 13 17 26 45 71 63 55 64 51 37 37 30 24 24 25 23 15 8 9 8 12 13
175 175 177 177 175 171 169 164 159 158 156 146 140 139 141 142 137 139 136 132 130 126 127 125 126 124 121 121 121 120 115 117 118 113 105 98 97 96 97 99 96 93 91 91 93 92 95 97 95 98 102 105 95 66 31 332 345 355 359 5 2 1 360 3 9 14 32 66 70 57 60 49 40 34 24 18 20 20 17 16 16 14 10 10 10
179 179 181 182 182 181 179 178 172 164 161 154 148 149 154 153 149 148 142 138 135 132 133 132 132 127 123 124 125 122 115 115 116 113 112 105 98 94 92 95 97 98 93 93 100 94 87 96 105 93 85 87 78 44 341 317 323 335 343 351 350 345 345 347 355 2 17 45 62 53 57 55 48 28 11 1 6 8 7 10 12 8 8 10 6
183 180 182 183 185 184 183 185 182 178 177 173 159 152 157 158 154 152 147 144 138 134 139 140 132 127 124 122 120 118 117 117 119 112 112 114 104 96 95 95 98 101 95 95 106 100 86 77 62 43 40 32 22 4 343 331 326 331 331 334 335 333 335 335 340 350 3 14 1 7 28 49 56 31 4 343 343 352 358 360 356 355 358 2 0
182 181 181 180 183 181 182 185 183 183 180 174 162 151 156 157 153 151 148 148 143 137 141 141 129 128 129 125 123 124 128 128 129 118 117 122 115 112 115 114 111 109 107 100 96 100 93 61 41 33 25 17 13 7 354 340 332 328 326 325 324 322 321 320 323 327 337 339 320 327 339 352 341 318 337 334 329 330 342 341 342 348 351 355 353
183 183 179 179 182 178 177 179 180 180 174 166 156 150 153 153 152 151 145 143 143 141 141 139 133 134 134 134 134 133 130 127 128 127 130 134 130 131 134 135 126 113 107 94 81 76 66 58 49 36 21 15 12 9 3 345 330 319 316 313 310 307 305 303 304 306 310 308 300 300 303 320 314 302 324 342 327 316 323 323 329 340 344 347 348
185 184 183 185 182 177 174 173 173 172 168 161 153 150 152 150 150 149 148 145 142 142 139 137 136 133 132 132 130 126 122 127 139 144 144 140 139 138 139 143 139 127 114 101 88 75 52 36 25 20 14 13 14 13 12 355 335 320 313 306 302 298 298 297 295 297 299 297 291 285 284 297 303 306 318 344 330 316 315 316 322 331 337 341 342
185 187 187 189 183 177 172 169 169 166 164 159 154 154 153 151 151 154 157 153 148 146 143 140 137 134 136 136 134 136 138 148 159 156 148 140 135 129 131 133 136 140 130 118 105 88 62 42 24 18 13 16 19 20 21 11 4 353 337 322 312 304 299 293 290 288 289 290 287 280 276 283 288 290 289 318 331 311 307 314 320 326 333 337 337
187 190 188 189 185 178 171 167 166 164 160 158 158 159 158 158 162 167 167 162 157 157 154 151 149 150 154 157 158 160 162 161 156 150 145 135 129 121 118 118 120 126 125 120 103 88 74 64 56 50 42 34 31 30 28 23 21 16 8 357 342 325 312 299 291 284 280 278 277 278 274 279 279 277 274 303 326 307 303 310 317 325 329 329 327
188 192 191 191 186 179 172 168 166 164 162 161 164 167 171 175 178 180 178 173 169 170 169 167 168 171 172 173 172 170 169 162 154 146 140 132 126 121 114 110 109 109 109 108 100 92 83 77 72 68 67 62 57 50 44 38 34 29 26 19 9 0 349 332 311 293 281 271 265 269 270 275 277 285 282 296 324 322 312 305 311 322 325 326 323
190 192 193 191 186 182 178 175 174 172 172 171 174 178 181 183 183 183 184 182 180 181 180 180 180 181 180 178 176 172 168 160 152 143 136 130 124 119 114 107 103 102 101 100 96 92 86 82 77 74 72 70 68 62 58 53 48 44 40 35 29 23 20 20 16 9 321 267 253 259 262 260 258 319 311 296 303 306 304 303 309 314 317 322 322
195 191 190 190 187 187 185 184 181 180 180 179 181 184 183 182 183 182 183 184 183 185 183 183 181 178 176 171 167 162 157 150 144 139 133 126 121 115 111 106 101 98 96 96 92 89 87 83 80 78 76 74 70 65 66 61 58 56 48 45 40 32 27 32 42 55 77 85 88 77 93 192 179 65 345 310 301 291 288 296 303 302 305 311 317
198 192 189 190 191 190 189 188 186 185 184 184 184 184 184 184 183 183 182 184 183 183 181 179 174 168 163 159 156 153 149 145 139 134 129 124 120 115 112 108 105 101 99 97 93 92 90 86 83 81 80 77 73 69 68 63 61 57 48 46 40 33 27 26 35 49 65 66 56 46 48 82 117 41 354 329 334 330 309 300 303 300 299 303 308
198 197 194 192 193 193 192 190 189 189 187 186 186 185 187 186 185 185 183 183 181 179 176 172 166 161 157 155 152 149 145 142 137 134 130 127 124 120 116 113 110 107 104 100 96 94 91 87 83 81 79 76 73 72 69 65 62 57 50 46 42 35 28 25 31 39 45 37 21 14 9 15 9 356 343 327 335 336 318 303 303 299 299 302 302
200 202 199 196 195 195 195 193 192 191 190 187 186 189 189 190 190 190 186 183 179 176 173 168 164 159 157 155 151 148 144 140 137 135 133 132 131 129 125 121 118 114 110 104 99 96 92 87 83 80 76 73 72 70 67 65 62 58 53 49 46 41 34 33 36 40 40 33 8 349 341 347 350 344 333 322 320 315 303 297 298 297 298 300 300
202 204 202 200 198 198 196 195 196 193 192 188 189 193 192 196 197 195 192 185 180 176 172 168 164 161 158 154 151 147 144 143 141 140 138 138 137 136 133 130 125 120 118 113 108 104 100 95 89 83 76 73 68 66 64 62 60 55 52 49 47 43 39 37 36 36 34 31 20 357 338 331 332 332 324 317 311 304 298 295 296 297 298 298 298
204 206 205 203 201 200 198 197 198 196 195 191 193 197 197 201 201 199 195 188 182 177 173 170 166 162 159 156 154 151 150 149 149 148 147 146 144 141 138 135 130 127 124 120 117 110 106 101 95 90 82 77 69 65 61 56 54 49 47 45 43 39 39 39 35 31 27 28 20 13 10 353 343 340 338 332 322 314 306 299 297 297 297 297 297
205 208 207 205 203 203 201 199 199 199 198 195 196 200 201 202 201 200 195 189 184 180 176 173 169 166 164 162 161 160 159 159 159 160 158 154 150 145 139 135 130 125 121 116 112 106 101 95 91 87 80 76 70 66 62 59 54 47 44 41 39 35 35 36 32 29 24 22 15 14 16 9 2 353 351 349 344 339 331 322 315 311 308 304 303
205 208 209 206 205 204 203 202 201 200 199 198 199 201 203 201 200 199 195 190 185 182 179 176 175 172 171 170 169 168 167 166 166 165 162 156 151 145 138 132 126 120 116 112 108 103 97 91 85 80 76 72 68 66 64 62 59 54 50 43 40 37 35 33 29 27 23 17 10 5 7 9 5 359 356 352 349 348 344 341 338 334 329 324 322
204 207 208 206 206 205 205 205 204 201 200 200 200 202 203 200 199 197 195 190 187 184 182 181 180 178 177 176 175 173 169 168 166 164 160 155 149 142 135 130 124 118 113 109 104 98 91 84 78 74 71 67 63 63 61 60 60 57 54 48 45 42 38 35 30 25 21 17 8 357 354 356 356 358 354 349 346 346 344 343 344 343 340 337 334
206 208 206 204 205 206 206 206 205 203 201 201 201 202 201 199 197 196 195 191 189 187 186 186 184 183 182 180 178 174 171 169 166 163 158 153 146 141 137 132 126 118 112 107 100 92 84 75 70 66 61 59 57 56 55 54 53 51 49 47 45 43 38 33 31 26 21 16 8 359 351 343 347 356 349 344 343 342 342 342 344 345 343 341 340
207 207 206 205 205 206 206 205 205 205 203 202 202 201 198 197 196 195 194 192 191 190 189 189 186 186 184 183 180 174 172 169 166 161 156 152 148 146 142 137 133 124 115 108 96 86 75 65 58 53 50 48 46 44 43 40 41 43 42 41 40 38 35 31 28 23 19 16 10 0 352 345 345 353 348 345 344 342 341 341 344 345 344 345 344
207 208 208 208 206 206 206 205 204 205 204 204 203 202 198 196 196 194 194 193 193 192 192 191 188 187 186 184 180 175 173 170 167 162 158 158 157 155 150 145 142 130 117 103 89 76 60 52 45 42 42 40 37 34 31 29 30 32 33 35 34 31 30 27 25 21 17 12 9 1 350 343 339 345 348 348 347 345 343 342 344 345 344 346 346
207 210 209 208 208 206 206 206 204 204 205 204 203 202 200 198 197 195 195 194 193 194 193 191 189 189 188 184 182 180 175 172 170 166 165 167 166 163 156 149 144 133 115 95 77 64 50 45 42 41 42 37 34 30 27 25 22 24 26 26 25 24 25 22 19 13 8 3 2 1 351 343 338 339 349 352 350 348 346 347 348 348 348 349 349
208 210 209 208 208 207 206 207 207 206 205 204 203 203 201 200 198 196 197 195 193 195 194 191 190 190 189 186 185 185 179 176 175 173 173 173 173 168 161 156 149 139 120 100 76 64 55 50 47 47 47 39 36 31 26 23 20 19 18 18 17 17 17 15 10 5 1 357 356 359 354 348 342 339 346 355 355 352 351 352 353 353 353 354 354
211 212 209 208 209 208 206 208 209 207 206 204 204 203 201 199 198 198 197 196 196 197 195 192 190 190 191 190 189 189 185 181 180 179 179 179 178 173 168 165 157 144 127 107 86 73 64 58 56 54 50 43 39 34 29 25 21 17 13 11 9 10 9 6 3 0 358 354 353 356 354 347 343 344 348 3 8 0 356 356 356 356 357 358 358
215 213 210 210 209 207 207 209 209 209 207 205 205 203 202 200 199 200 198 198 198 197 196 194 193 192 193 194 194 193 190 186 185 184 183 183 181 177 174 170 163 149 136 116 95 77 66 61 57 54 48 41 34 32 30 24 19 14 10 6 5 5 1 359 358 358 357 354 351 352 354 349 346 354 8 31 34 17 3 359 357 356 358 360 360
216 213 213 212 208 207 208 209 209 209 208 207 206 204 203 202 201 201 200 200 199 198 197 196 195 195 196 197 197 195 192 191 190 188 186 186 185 181 178 174 169 159 149 133 106 80 69 61 53 51 42 34 30 28 25 20 15 8 5 3 1 1 356 355 357 355 351 349 348 351 358 1 6 26 48 51 42 32 15 1 358 357 357 358 359
215 216 216 212 208 208 208 208 208 208 208 208 207 205 204 203 202 202 202 202 201 199 198 199 198 198 199 200 200 197 194 194 193 191 189 189 188 183 180 178 176 169 162 150 120 90 70 55 49 43 33 30 26 25 21 15 9 3 1 360 358 357 353 354 354 349 346 344 348 355 7 24 47 60 59 48 36 34 26 9 0 357 355 354 355
216 218 215 211 210 209 208 208 207 208 209 209 208 207 206 204 204 204 203 203 202 201 200 200 201 200 200 201 202 199 197 198 195 194 192 191 190 186 184 181 179 177 170 158 136 106 76 60 53 40 32 27 17 20 18 8 4 359 357 356 356 353 351 354 351 344 342 343 354 10 36 55 66 64 51 39 32 32 29 17 4 354 349 349 350
217 215 213 213 213 210 208 207 206 208 209 209 208 208 207 205 205 205 205 205 204 204 203 202 202 202 202 202 203 201 199 200 198 195 193 193 191 188 188 185 182 179 172 164 150 127 100 79 60 43 29 16 9 10 5 359 357 355 354 353 353 349 349 354 347 341 341 353 16 40 63 65 59 50 39 34 31 27 22 14 4 351 344 342 344
215 213 215 215 212 209 207 206 206 208 208 208 209 209 208 206 206 206 206 206 206 207 206 204 203 203 203 203 203 202 200 200 200 198 196 195 193 189 187 186 183 179 175 170 163 152 133 103 62 40 11 9 8 0 356 353 351 350 350 350 350 347 348 349 343 344 352 16 51 66 69 63 51 39 31 28 22 16 10 2 355 347 342 339 340
215 215 215 212 210 209 207 206 206 206 207 207 208 208 209 207 206 207 208 208 208 209 209 207 205 204 204 204 203 202 202 201 200 200 199 197 194 191 188 185 184 181 179 175 171 169 155 124 36 24 0 3 3 354 350 347 346 347 348 348 348 347 348 346 344 356 28 60 74 77 66 51 34 19 13 16 10 5 356 344 340 338 335 330 332
217 215 213 209 208 208 207 206 206 206 205 206 207 207 208 208 207 208 208 209 209 210 210 209 207 205 205 205 204 203 203 203 201 200 201 199 195 191 188 186 185 184 182 179 177 175 172 198 335 1 357 358 352 347 345 344 344 344 345 348 348 350 349 345 356 34 72 83 83 77 53 26 9 2 0 359 352 343 335 330 331 330 326 323 326
218 215 213 211 208 206 206 206 206 205 203 203 205 206 207 207 208 208 209 209 209 211 210 210 209 207 206 206 205 204 203 203 201 201 201 200 196 192 190 188 187 187 185 184 183 184 188 201 265 346 359 356 347 344 343 343 342 340 343 347 351 358 353 356 53 86 94 94 89 71 18 348 335 331 330 333 334 329 325 324 326 325 322 321 323
217 214 212 210 207 205 204 203 203 202 201 202 203 204 205 205 206 207 208 209 209 211 211 211 211 209 208 207 207 206 203 202 202 202 201 200 196 193 193 191 190 189 188 188 188 191 195 196 205 355 15 359 350 346 345 344 340 337 341 347 359 10 4 80 110 113 107 83 325 302 323 332 329 325 320 327 334 329 325 325 325 325 322 321 321
216 212 208 206 204 202 200 200 201 200 198 198 200 200 200 202 203 203 206 208 209 210 211 213 212 211 210 209 210 207 203 202 203 203 202 200 198 195 194 193 192 192 192 192 190 192 193 189 184 162 73 25 4 353 352 345 338 337 341 349 14 20 43 133 135 124 71 336 313 314 335 344 342 341 334 332 335 330 327 326 329 331 326 322 321
212 208 205 203 203 200 198 197 198 197 195 195 197 197 197 197 198 201 204 206 207 208 210 212 214 214 213 212 211 209 205 203 203 203 202 202 200 197 195 194 194 193 192 190 187 188 186 184 178 161 125 67 37 11 0 350 345 345 342 346 11 25 126 159 152 121 2 347 71 35 12 16 12 2 345 336 335 331 330 330 333 333 325 320 322
206 205 204 202 201 199 198 197 195 195 196 197 197 198 200 199 199 201 203 204 205 207 209 211 214 215 214 214 212 210 207 205 205 204 203 203 201 198 198 197 195 191 187 185 185 186 183 182 180 166 139 95 72 39 9 2 4 349 332 331 356 18 101 167 169 138 349 74 93 11 13 33 13 7 355 342 336 333 334 334 332 330 319 314 321
205 203 202 200 197 197 197 196 194 195 197 198 199 200 202 202 202 202 202 203 205 208 210 212 213 214 214 213 213 211 209 207 206 205 204 204 203 201 199 197 196 191 189 187 186 185 185 182 179 176 153 116 97 65 22 15 13 356 341 319 353 16 8 114 200 301 326 170 357 349 9 7 358 359 349 336 336 338 337 332 327 323 313 312 320
202 199 198 196 195 196 197 196 196 196 197 199 200 200 200 200 203 204 203 203 206 208 210 212 213 213 212 212 213 213 210 208 207 207 207 206 204 203 201 198 196 194 194 192 189 187 188 186 182 184 172 139 122 104 51 28 21 16 31 249 341 97 336 349 306 313 299 179 320 337 344 343 345 344 342 340 341 338 331 326 321 318 312 312 320
199 198 197 196 196 197 197 196 196 197 198 198 198 197 196 195 196 197 198 201 204 204 205 209 210 211 211 211 212 212 210 209 208 209 208 207 205 203 202 200 197 195 195 195 193 189 188 190 188 190 189 162 136 125 105 56 37 41 72 119 13 57 261 316 327 316 228 251 306 321 335 336 338 340 341 338 334 330 325 322 318 315 312 315 322
201 201 199 197 197 196 196 196 196 197 198 197 196 195 194 193 191 189 190 194 198 201 204 206 206 208 210 210 210 211 211 210 209 209 209 208 206 204 202 202 199 197 196 193 192 190 190 192 191 192 196 182 140 123 124 107 79 79 92 114 183 250 283 323 340 304 274 290 282 299 326 332 337 335 332 328 326 324 324 323 320 317 316 321 328
204 201 199 197 197 196 195 196 196 197 197 196 196 195 194 195 196 196 196 196 199 204 207 207 207 207 208 209 210 211 212 212 211 210 210 209 207 205 203 203 202 200 197 194 192 192 192 192 192 194 196 189 164 128 130 129 110 122 133 147 204 241 280 308 323 288 311 299 249 299 322 334 329 325 324 324 323 324 326 326 322 320 322 327 332
202 198 196 196 196 196 196 196 197 197 197 197 197 197 198 198 199 200 201 203 205 208 208 207 208 208 207 209 210 211 212 212 213 211 210 209 207 206 205 204 203 201 199 197 195 193 192 193 192 193 194 189 189 157 141 148 129 144 172 196 215 240 260 276 285 281 306 307 292 306 313 306 318 322 323 325 323 325 329 327 323 322 326 330 333
199 197 197 197 196 196 196 196 197 198 198 198 198 200 201 201 200 201 204 207 209 210 208 206 207 207 207 208 209 210 211 211 213 213 211 209 208 207 206 204 203 201 200 197 195 195 196 198 196 195 196 189 191 201 168 171 163 169 198 218 222 242 259 271 276 263 247 269 302 316 308 313 322 319 316 324 326 327 327 325 325 326 329 332 336
200 199 197 195 195 195 195 196 198 199 199 200 200 201 202 202 203 204 206 207 207 208 207 205 205 205 206 206 207 209 210 210 212 213 213 211 209 208 207 206 204 203 200 197 196 197 197 199 199 198 197 193 191 196 191 194 190 194 209 219 223 232 253 267 254 239 236 244 257 285 296 309 321 312 314 322 321 323 327 329 331 333 335 337 339
198 198 195 195 195 195 196 197 199 200 200 201 202 202 203 204 206 207 208 207 205 203 203 202 203 203 204 205 206 207 208 209 210 211 213 212 210 209 209 208 206 204 202 200 200 200 198 198 199 198 196 194 192 190 192 199 204 213 218 224 229 231 237 242 235 233 235 240 249 262 273 283 286 292 308 319 320 324 330 332 335 340 342 339 338